Chugiak, AK

2:26 PM AKST on February 09, 2016 (GMT -0900)
Birchwood

Weather History for PABV - January, 2013

Change the Weather History Date:

Tuesday, January 15, 2013

  Actual Average Record
Temperature  
Mean Temperature 30 °F -  
Max Temperature 35 °F 19 °F 50 °F (2009)
Min Temperature 24 °F 7 °F -16 °F (1991)
Degree Days  
Heating Degree Days 36    
Moisture  
Dew Point 16 °F    
Average Humidity 61    
Maximum Humidity 80    
Minimum Humidity 38    
Precipitation  
Precipitation 0.00 in - - ()
Sea Level Pressure  
Sea Level Pressure 30.14 in    
Wind  
Wind Speed 5 mph (ESE)    
Max Wind Speed 14 mph    
Max Gust Speed 18 mph    
Visibility 10 miles    
Events      
Averages and records for this station are not official NWS values.
T = Trace of Precipitation, MM = Missing Value Source: NWS Daily Summary

Daily Weather History Graph

Daily Weather History Graph

Search for Another Location

Airport or City:

Trip Planner

Search our weather history database for the weather conditions in past years. The results will help you decide how hot, cold, wet, or windy it might be!

Date:

Astronomy

Jan. 15, 2013 Rise Set
Actual Time 9:56 AM AKST 4:19 PM AKST
Civil Twilight 8:59 AM AKST 5:16 PM AKST
Nautical Twilight 8:02 AM AKST 6:13 PM AKST
Astronomical Twilight 7:10 AM AKST 7:05 PM AKST
Moon 10:30 AM AKST (1/15) 11:06 PM AKST (1/15)
Length of Visible Light 8h 16m
Length of Day
6h 23m
Waxing Crescent, 20% of the Moon is Illuminated
Jan 15
Waxing Crescent
Jan 18
First Quarter
Jan 26
Full
Feb 3
Last Quarter
Feb 9
New

Hourly Weather History & Observations

Time (AKST) Temp. Windchill Dew Point Humidity Pressure Visibility Wind Dir Wind Speed Gust Speed Precip Events Conditions
12:16 AM 35.6 °F 28.6 °F 17.6 °F 48% 29.94 in 10.0 mi SSW 9.2 mph - N/A   Clear
12:36 AM 35.6 °F 28.6 °F 15.8 °F 44% 29.95 in 10.0 mi SSW 9.2 mph - N/A   Clear
12:56 AM 35.6 °F 28.6 °F 14.0 °F 41% 29.96 in 10.0 mi SSW 9.2 mph 16.1 mph N/A   Clear
1:16 AM 35.6 °F 29.2 °F 12.2 °F 38% 29.97 in 10.0 mi SSW 8.1 mph 16.1 mph N/A   Clear
1:36 AM 35.6 °F 27.1 °F 12.2 °F 38% 29.99 in 10.0 mi SSW 12.7 mph 18.4 mph N/A   Clear
1:56 AM 33.8 °F 24.3 °F 12.2 °F 41% 29.99 in 10.0 mi SW 13.8 mph 18.4 mph N/A   Clear
2:16 AM 33.8 °F 24.8 °F 12.2 °F 41% 30.00 in 10.0 mi SSW 12.7 mph 18.4 mph N/A   Clear
2:36 AM 33.8 °F 25.3 °F 10.4 °F 38% 30.00 in 10.0 mi SW 11.5 mph 16.1 mph N/A   Clear
2:56 AM 33.8 °F 25.8 °F 10.4 °F 38% 30.01 in 10.0 mi SW 10.4 mph 16.1 mph N/A   Clear
3:16 AM 33.8 °F 27.0 °F 10.4 °F 38% 30.01 in 10.0 mi SW 8.1 mph 16.1 mph N/A   Clear
3:36 AM 33.8 °F 30.8 °F 12.2 °F 41% 30.02 in 10.0 mi North 3.5 mph - N/A   Clear
3:56 AM 33.8 °F - 12.2 °F 41% 30.03 in 10.0 mi Calm Calm - N/A   Clear
4:16 AM 30.2 °F - 17.6 °F 60% 30.04 in 10.0 mi Calm Calm - N/A   Clear
4:36 AM 30.2 °F - 19.4 °F 64% 30.05 in 10.0 mi Calm Calm - N/A   Clear
4:56 AM 30.2 °F - 15.8 °F 55% 30.06 in 10.0 mi Calm Calm - N/A   Clear
5:16 AM 30.2 °F - 15.8 °F 55% 30.07 in 10.0 mi Calm Calm - N/A   Clear
5:36 AM 26.6 °F - 19.4 °F 74% 30.07 in 10.0 mi Calm Calm - N/A   Clear
5:56 AM 28.4 °F - 17.6 °F 64% 30.08 in 10.0 mi Calm Calm - N/A   Clear
6:16 AM 28.4 °F - 17.6 °F 64% 30.09 in 10.0 mi Calm Calm - N/A   Clear
6:36 AM 30.2 °F 26.7 °F 15.8 °F 55% 30.10 in 10.0 mi South 3.5 mph - N/A   Clear
6:56 AM 28.4 °F 23.3 °F 15.8 °F 59% 30.10 in 10.0 mi SSE 4.6 mph - N/A   Clear
7:16 AM 28.4 °F - 15.8 °F 59% 30.10 in 10.0 mi Calm Calm - N/A   Clear
7:36 AM 26.6 °F 20.0 °F 17.6 °F 69% 30.11 in 10.0 mi NE 5.8 mph - N/A   Clear
7:56 AM 26.6 °F - 15.8 °F 64% 30.12 in 10.0 mi Calm Calm - N/A   Clear
8:16 AM 26.6 °F - 17.6 °F 69% 30.13 in 10.0 mi Calm Calm - N/A   Clear
8:36 AM 26.6 °F 21.2 °F 14.0 °F 59% 30.14 in 10.0 mi ESE 4.6 mph - N/A   Clear
8:56 AM 26.6 °F 22.6 °F 14.0 °F 59% 30.15 in 10.0 mi SE 3.5 mph - N/A   Clear
9:16 AM 26.6 °F 22.6 °F 12.2 °F 55% 30.16 in 10.0 mi ESE 3.5 mph - N/A   Clear
9:36 AM 26.6 °F - 12.2 °F 55% 30.16 in 10.0 mi Calm Calm - N/A   Clear
9:56 AM 24.8 °F - 15.8 °F 69% 30.17 in 10.0 mi Calm Calm - N/A   Clear
10:16 AM 26.6 °F 22.6 °F 10.4 °F 51% 30.17 in 8.0 mi ESE 3.5 mph - N/A   Clear
10:36 AM 26.6 °F 22.6 °F 10.4 °F 51% 30.18 in 9.0 mi SE 3.5 mph - N/A   Clear
10:56 AM 24.8 °F 20.5 °F 12.2 °F 59% 30.18 in 10.0 mi ESE 3.5 mph - N/A   Clear
11:16 AM 26.6 °F 20.0 °F 10.4 °F 51% 30.18 in 10.0 mi East 5.8 mph - N/A   Clear
11:36 AM 26.6 °F 21.2 °F 12.2 °F 55% 30.19 in 10.0 mi ESE 4.6 mph - N/A   Clear
11:56 AM 26.6 °F 20.0 °F 10.4 °F 51% 30.19 in 10.0 mi ESE 5.8 mph - N/A   Clear
12:16 PM 26.6 °F - 12.2 °F 55% 30.19 in 10.0 mi Calm Calm - N/A   Clear
12:36 PM 26.6 °F 22.6 °F 10.4 °F 51% 30.20 in 10.0 mi ENE 3.5 mph - N/A   Clear
12:56 PM 26.6 °F - 12.2 °F 55% 30.20 in 10.0 mi Calm Calm - N/A   Clear
1:16 PM 26.6 °F - 15.8 °F 64% 30.20 in 10.0 mi Calm Calm - N/A   Clear
1:36 PM 26.6 °F 22.6 °F 12.2 °F 55% 30.20 in 10.0 mi ENE 3.5 mph - N/A   Clear
1:56 PM 28.4 °F 24.6 °F 12.2 °F 51% 30.20 in 10.0 mi ESE 3.5 mph - N/A   Clear
2:16 PM 28.4 °F - 12.2 °F 51% 30.20 in 10.0 mi Calm Calm - N/A   Clear
2:36 PM 28.4 °F - 15.8 °F 59% 30.20 in 10.0 mi Calm Calm - N/A   Clear
2:56 PM 26.6 °F - 17.6 °F 69% 30.20 in 10.0 mi Calm Calm - N/A   Clear
3:16 PM 26.6 °F - 17.6 °F 69% 30.20 in 10.0 mi Calm Calm - N/A   Clear
3:36 PM 26.6 °F - 17.6 °F 69% 30.20 in 10.0 mi Calm Calm - N/A   Clear
3:56 PM 26.6 °F - 17.6 °F 69% 30.20 in 10.0 mi Calm Calm - N/A   Clear
4:16 PM 26.6 °F - 15.8 °F 64% 30.21 in 10.0 mi Calm Calm - N/A   Partly Cloudy
4:36 PM 28.4 °F - 15.8 °F 59% 30.21 in 10.0 mi Calm Calm - N/A   Scattered Clouds
4:56 PM 26.6 °F 22.6 °F 21.2 °F 80% 30.22 in 10.0 mi NNE 3.5 mph - N/A   Mostly Cloudy
5:16 PM 26.6 °F 22.6 °F 21.2 °F 80% 30.21 in 10.0 mi NE 3.5 mph - N/A   Overcast
5:36 PM 26.6 °F - 21.2 °F 80% 30.22 in 10.0 mi Calm Calm - N/A   Partly Cloudy
5:56 PM 26.6 °F - 19.4 °F 74% 30.22 in 10.0 mi Calm Calm - N/A   Clear
6:16 PM 24.8 °F - 19.4 °F 80% 30.22 in 10.0 mi Calm Calm - N/A   Scattered Clouds
6:36 PM 24.8 °F 20.5 °F 19.4 °F 80% 30.22 in 10.0 mi NE 3.5 mph - N/A   Clear
6:56 PM 24.8 °F 19.1 °F 17.6 °F 74% 30.22 in 10.0 mi NE 4.6 mph - N/A   Clear
7:16 PM 24.8 °F - 15.8 °F 69% 30.22 in 10.0 mi Calm Calm - N/A   Clear
7:36 PM 26.6 °F 21.2 °F 15.8 °F 64% 30.22 in 10.0 mi SE 4.6 mph - N/A   Scattered Clouds
7:56 PM 28.4 °F 21.2 °F 15.8 °F 59% 30.22 in 10.0 mi ESE 6.9 mph - N/A   Partly Cloudy
8:16 PM 28.4 °F 23.3 °F 14.0 °F 55% 30.22 in 10.0 mi ESE 4.6 mph - N/A   Scattered Clouds
8:36 PM 28.4 °F 22.2 °F 15.8 °F 59% 30.22 in 10.0 mi ESE 5.8 mph - N/A   Overcast
9:16 PM 24.8 °F 19.1 °F 19.4 °F 80% 30.21 in 10.0 mi NE 4.6 mph - N/A   Mostly Cloudy
9:36 PM 24.8 °F - 19.4 °F 80% 30.21 in 10.0 mi Calm Calm - N/A   Overcast
9:56 PM 24.8 °F 20.5 °F 19.4 °F 80% 30.20 in 10.0 mi NE 3.5 mph - N/A   Overcast
10:16 PM 24.8 °F 17.9 °F 19.4 °F 80% 30.21 in 10.0 mi NE 5.8 mph - N/A   Overcast
10:36 PM 24.8 °F 19.1 °F 19.4 °F 80% 30.21 in 10.0 mi East 4.6 mph - N/A   Overcast
10:56 PM 24.8 °F - 19.4 °F 80% 30.20 in 10.0 mi Calm Calm - N/A   Overcast
11:16 PM 24.8 °F - 19.4 °F 80% 30.20 in 10.0 mi Calm Calm - N/A   Overcast
11:36 PM 24.8 °F - 19.4 °F 80% 30.20 in 10.0 mi Calm Calm - N/A   Overcast
11:56 PM 24.8 °F 20.5 °F 19.4 °F 80% 30.20 in 10.0 mi SSE 3.5 mph - N/A   Overcast